Location: Blue Mountain Vista Observatory
(40.6992°N, 75.9422°W)
Time: 04:39:44
(UTC-04:00)

Amateur Radio Satellites - All Passes

Search period start: 25 June 2016 04:09
Search period end: 26 June 2016 04:09
Location: Blue Mountain Vista Observatory, 40.6992°N, 75.9422°W

Satellite Date Start Highest point End Downlink Frequencies (MHz)
Time Altitude Azimuth
O/OREOS (USA 219) 25 Jun 04:16:50 04:21:17 62° 294° (WNW) 04:25:45 437.305
KKS-1 25 Jun 04:24:04 04:28:24 54° 259° (W) 04:32:45 437.445
AIST 1 25 Jun 04:28:15 04:31:59 29° 75° (ENE) 04:35:41
Cosmos 2504 25 Jun 04:32:14 04:36:03 14° 286° (WNW) 04:39:50 435.465 / 435.565
GONETS M04 25 Jun 04:44:12 04:49:58 19° 62° (ENE) 04:55:43
BEESAT 3 25 Jun 04:50:14 04:53:45 31° 310° (NW) 04:57:18 437.485
AO-7 25 Jun 04:52:02 05:00:26 71° 105° (ESE) 05:08:45 29.400- 29.500
CUBESAT XI-V 25 Jun 05:00:43 05:04:59 35° 70° (ENE) 05:09:17 437.345
STARS 25 Jun 05:07:52 05:11:52 35° 262° (W) 05:15:53 437.465
PCSat 25 Jun 05:17:33 05:21:04 17° 317° (NW) 05:24:37 145.827
BEESAT 2 25 Jun 05:20:02 05:23:28 28° 311° (NW) 05:26:57 435.950
MOZHAYETS 4 25 Jun 05:22:58 05:25:58 17° 268° (W) 05:28:58
AIST 2 25 Jun 05:28:23 05:31:23 20° 111° (ESE) 05:34:23 435.215
Cosmos 2499 25 Jun 05:31:38 05:38:40 26° 66° (ENE) 05:45:25 435.465 / 435.565
HORYU 2 25 Jun 05:40:46 05:45:08 48° 100° (E) 05:49:29 437.375
ITAMSAT 1 25 Jun 05:47:54 05:50:08 13° 301° (WNW) 05:52:21 435.822/435.867
AO-85 25 Jun 05:58:54 06:00:20 11° 34° (NE) 06:01:43 145.980
BRITE-PL 25 Jun 06:02:09 06:03:49 12° 91° (E) 06:05:28 437.365/2234.400
AIST 1 25 Jun 06:06:10 06:09:23 21° 272° (W) 06:12:36
CUTE-I 25 Jun 06:18:06 06:21:40 18° 92° (E) 06:25:12 437.470
STRAND 1 25 Jun 06:21:48 06:25:32 21° 64° (ENE) 06:29:18 437.568
CUBESAT XI-V 25 Jun 06:38:42 06:42:26 23° 266° (W) 06:46:10 437.345
GONETS M04 25 Jun 06:39:17 06:48:03 90° 38° (NE) 06:56:49
NOAA 18 25 Jun 06:43:06 06:48:05 33° 97° (E) 06:53:02 137.9125
AO-7 25 Jun 06:45:46 06:52:29 28° 305° (NW) 06:59:12 29.400- 29.500
GOMX 1 25 Jun 06:55:01 06:58:15 21° 95° (E) 07:01:33 467.674
NOAA 15 25 Jun 06:58:27 07:03:38 58° 101° (E) 07:08:47 137.62
AIST 2 25 Jun 07:05:45 07:09:36 38° 308° (NW) 07:13:29 435.215
HORYU 2 25 Jun 07:18:26 07:21:18 17° 296° (WNW) 07:24:09 437.375
DANDE 25 Jun 07:20:20 07:25:06 17° 80° (E) 07:29:46 436.750
Cubesat XI-IV 25 Jun 07:21:00 07:26:23 68° 102° (ESE) 07:31:44 437.490
LilacSat-2 25 Jun 07:22:56 07:26:50 82° 102° (ESE) 07:30:43 437.200
Cosmos 2499 25 Jun 07:23:50 07:32:39 72° 267° (W) 07:40:57 435.465 / 435.565
CUSAT 1 25 Jun 07:32:11 07:39:19 38° 91° (E) 07:45:42 437.405
AO-85 25 Jun 07:37:16 07:41:49 67° 55° (NE) 07:45:56 145.980
BRITE-PL 25 Jun 07:38:38 07:42:40 49° 287° (WNW) 07:46:40 437.365/2234.400
CUTE-I 25 Jun 07:56:47 08:02:04 58° 288° (WNW) 08:07:19 437.470
STRAND 1 25 Jun 07:59:23 08:04:20 49° 260° (W) 08:09:21 437.568
CINEMA 3 25 Jun 08:02:51 08:05:49 17° 93° (E) 08:08:50 145.822/145.860
PRISM 25 Jun 08:13:49 08:17:40 37° 71° (ENE) 08:21:30 437.425
DOVE 4 25 Jun 08:14:32 08:18:49 77° 103° (ESE) 08:23:16 437.250
NOAA 18 25 Jun 08:23:46 08:28:40 34° 294° (WNW) 08:33:35 137.9125
CANX-2 25 Jun 08:27:01 08:30:47 29° 96° (E) 08:34:31 2200.000
HO-68 25 Jun 08:29:03 08:35:36 36° 97° (E) 08:42:06 435.675
GOMX 1 25 Jun 08:32:46 08:36:23 29° 290° (WNW) 08:40:05 467.674
GONETS M04 25 Jun 08:38:26 08:43:35 17° 283° (WNW) 08:48:44
NOAA 15 25 Jun 08:39:24 08:42:56 19° 298° (WNW) 08:46:27 137.62
COMPASS 1 25 Jun 08:44:41 08:47:48 20° 94° (E) 08:50:52 437.405
CUTE 1.7 + AOD 2 25 Jun 08:47:34 08:51:40 43° 98° (E) 08:55:44 437.475
DANDE 25 Jun 08:58:30 09:06:51 79° 96° (E) 09:14:57 436.750
SEEDS 25 Jun 08:58:49 09:02:51 41° 98° (E) 09:06:50 437.485
Cubesat XI-IV 25 Jun 09:02:32 09:05:52 17° 299° (WNW) 09:09:12 437.490
M-CUBED/EXP-1 PRIME 25 Jun 09:04:46 09:06:38 13° 99° (E) 09:08:36 437.505
ZACube-1 25 Jun 09:11:08 09:13:07 13° 90° (E) 09:15:07 437.345
CUSAT 1 25 Jun 09:13:43 09:21:17 46° 285° (WNW) 09:27:58 437.405
PHONESAT 2.4 25 Jun 09:14:31 09:17:25 40° 161° (SSE) 09:20:21 2401.200-2431.200
AO-85 25 Jun 09:20:12 09:21:30 11° 255° (WSW) 09:22:47 145.980
Cosmos 2499 25 Jun 09:20:30 09:24:01 13° 287° (WNW) 09:27:28 435.465 / 435.565
UWE-3 25 Jun 09:21:44 09:25:32 25° 95° (E) 09:29:22 435.000/436.395/437.385
TIGRISAT 25 Jun 09:25:50 09:28:03 14° 63° (ENE) 09:30:18 435.000
Oscar 11 25 Jun 09:27:44 09:30:55 20° 93° (E) 09:34:05 145.826/435.025
UNISAT 6 25 Jun 09:29:08 09:31:47 16° 64° (ENE) 09:34:27 437.425
FUNcube-1 25 Jun 09:29:50 09:33:05 19° 93° (E) 09:36:21 145.935
ISS 25 Jun 09:37:16 09:39:48 21° 133° (SE) 09:42:20 145.825
CINEMA 3 25 Jun 09:38:52 09:43:07 45° 287° (WNW) 09:47:33 145.822/145.860
AAUSAT CUBESAT 2 25 Jun 09:49:04 09:53:16 88° 113° (ESE) 09:57:25 437.432
PRISM 25 Jun 09:50:14 09:53:05 18° 266° (W) 09:55:55 437.425
AUBIESAT-1 25 Jun 10:01:39 10:05:24 50° 106° (ESE) 10:09:25 437.475
CUBEBUG 2 25 Jun 10:01:54 10:06:28 83° 282° (WNW) 10:11:09 437.445
CANX-2 25 Jun 10:03:04 10:06:30 24° 292° (WNW) 10:09:56 2200.000
ANTELSAT 25 Jun 10:07:28 10:11:28 40° 71° (ENE) 10:15:34 437.575/2403.000
HO-68 25 Jun 10:16:38 10:23:21 44° 295° (WNW) 10:30:03 435.675
COMPASS 1 25 Jun 10:19:38 10:23:25 33° 289° (WNW) 10:27:09 437.405
CUTE 1.7 + AOD 2 25 Jun 10:24:25 10:27:10 17° 294° (WNW) 10:29:53 437.475
NANOSAT C BR1 25 Jun 10:32:29 10:34:11 12° 63° (ENE) 10:35:54 145.865
QB50P1 25 Jun 10:32:55 10:34:54 13° 63° (ENE) 10:36:53 145.935-145.965
DELFI C3 25 Jun 10:33:05 10:36:58 46° 99° (E) 10:40:47 145.870
SEEDS 25 Jun 10:35:26 10:38:13 17° 294° (WNW) 10:40:59 437.485
POPSAT HIP 1 25 Jun 10:35:34 10:37:43 14° 64° (ENE) 10:39:51 437.405
M-CUBED/EXP-1 PRIME 25 Jun 10:37:42 10:41:19 46° 291° (WNW) 10:45:13 437.505
PCSat 25 Jun 10:38:35 10:40:38 12° 38° (NE) 10:42:42 145.827
DANDE 25 Jun 10:43:50 10:50:23 25° 294° (WNW) 10:56:43 436.750
ZACube-1 25 Jun 10:45:18 10:49:45 61° 286° (WNW) 10:54:16 437.345
QB50P2 25 Jun 10:45:55 10:48:54 19° 66° (ENE) 10:51:54 145.880/145.840
POLYITAN 1 25 Jun 10:48:29 10:51:31 20° 67° (ENE) 10:54:33 437.675
PHONESAT 2.4 25 Jun 10:50:52 10:53:57 88° 177° (S) 10:57:02 2401.200-2431.200
DUCHIFAT 1 25 Jun 10:53:29 10:56:29 20° 67° (ENE) 10:59:29 145.980
HUMSAT D 25 Jun 10:56:10 11:00:15 39° 98° (E) 11:04:17 437.325/437.525
UWE-3 25 Jun 10:57:58 11:01:58 31° 290° (WNW) 11:06:01 435.000/436.395/437.385
TIGRISAT 25 Jun 11:00:06 11:04:15 54° 260° (W) 11:08:32 435.000
Oscar 11 25 Jun 11:03:09 11:07:09 36° 289° (WNW) 11:11:08 145.826/435.025
UNISAT 6 25 Jun 11:04:00 11:08:06 45° 261° (W) 11:12:18 437.425
FUNcube-1 25 Jun 11:05:14 11:09:27 40° 288° (WNW) 11:13:42 145.935
ISS 25 Jun 11:12:55 11:16:03 43° 329° (NNW) 11:19:12 145.825
RS-15 25 Jun 11:22:13 11:31:14 29° 102° (ESE) 11:40:35 29.354- 29.394
ESTCUBE 1 25 Jun 11:23:05 11:25:23 14° 91° (E) 11:27:40 437.505/2401.250
BEESAT 3 25 Jun 11:30:39 11:33:04 15° 43° (NE) 11:35:28 437.485
AUBIESAT-1 25 Jun 11:37:38 11:39:34 14° 299° (WNW) 11:41:34 437.475
AISAT 25 Jun 11:42:49 11:45:10 14° 92° (E) 11:47:30 437.250
ANTELSAT 25 Jun 11:45:35 11:48:23 17° 268° (W) 11:51:13 437.575/2403.000
YUBILEINY 25 Jun 11:51:15 11:55:48 15° 76° (ENE) 12:00:21 435.215
Cosmos 2491 25 Jun 12:00:23 12:08:43 47° 75° (ENE) 12:17:00 435.465 / 435.565
BEESAT 2 25 Jun 12:00:44 12:03:28 17° 45° (NE) 12:06:11 435.950
UKube-1 25 Jun 12:03:42 12:05:56 14° 92° (E) 12:08:09 .
BUGSAT 1 25 Jun 12:04:11 12:08:07 53° 73° (ENE) 12:12:01 437.445
NANOSAT C BR1 25 Jun 12:05:18 12:09:25 59° 259° (W) 12:13:34 145.865
QB50P1 25 Jun 12:06:06 12:10:12 55° 260° (W) 12:14:20 145.935-145.965
POPSAT HIP 1 25 Jun 12:08:59 12:13:03 51° 260° (W) 12:17:09 437.405
DELFI C3 25 Jun 12:09:19 12:11:24 14° 295° (WNW) 12:13:29 145.870
50 SAT 25 Jun 12:12:43 12:16:01 29° 97° (E) 12:19:16 437.505
SPROUT 25 Jun 12:12:58 12:14:39 12° 91° (E) 12:16:20 437.525
DX 1 25 Jun 12:15:24 12:18:54 24° 95° (E) 12:22:23 434.975-435.025
JAS-2 25 Jun 12:17:28 12:24:52 51° 70° (ENE) 12:31:44 435.910
PCSat 25 Jun 12:19:46 12:25:10 62° 58° (ENE) 12:30:31 145.827
QB50P2 25 Jun 12:20:37 12:24:27 35° 262° (W) 12:28:21 145.880/145.840
POLYITAN 1 25 Jun 12:23:16 12:27:05 34° 262° (W) 12:30:56 437.675
PHONESAT 2.4 25 Jun 12:27:29 12:30:32 60° 194° (SSW) 12:33:36 2401.200-2431.200
DUCHIFAT 1 25 Jun 12:28:08 12:31:57 34° 263° (W) 12:35:46 145.980
HUMSAT D 25 Jun 12:32:35 12:35:34 18° 294° (WNW) 12:38:32 437.325/437.525
VELOX 1 25 Jun 12:37:13 12:41:32 54° 101° (E) 12:45:49 145.980
CUBEBUG 1 25 Jun 12:39:07 12:43:24 63° 101° (E) 12:47:40 437.445
O/OREOS (USA 219) 25 Jun 12:48:20 12:51:59 24° 58° (ENE) 12:55:36 437.305
ISS 25 Jun 12:51:16 12:53:09 14° 348° (NNW) 12:55:03 145.825
ESTCUBE 1 25 Jun 12:58:07 13:02:31 54° 287° (WNW) 13:06:54 437.505/2401.250
BEESAT 3 25 Jun 13:07:13 13:11:06 58° 242° (WSW) 13:14:58 437.485
AISAT 25 Jun 13:17:41 13:21:56 50° 287° (WNW) 13:26:10 437.250
Gurwin Techsat 1B 25 Jun 13:18:37 13:22:51 25° 65° (ENE) 13:27:06 435.225
Cosmos 2504 25 Jun 13:23:02 13:28:09 18° 77° (ENE) 13:33:26 435.465 / 435.565
Oscar 19 25 Jun 13:30:12 13:35:19 70° 74° (ENE) 13:40:27 437.125/150
RS-15 25 Jun 13:30:55 13:42:20 79° 304° (NW) 13:54:29 29.354- 29.394
BEESAT 2 25 Jun 13:37:42 13:41:34 49° 242° (WSW) 13:45:24 435.950
UKube-1 25 Jun 13:38:04 13:42:15 50° 287° (WNW) 13:46:25 .
YUBILEINY 25 Jun 13:42:26 13:51:08 83° 96° (E) 13:59:55 435.215
BUGSAT 1 25 Jun 13:42:33 13:43:48 11° 269° (W) 13:45:02 437.445
TISAT 1 25 Jun 13:45:13 13:49:00 32° 97° (E) 13:52:48 437.305
SPROUT 25 Jun 13:46:44 13:50:56 56° 286° (WNW) 13:55:07 437.525
ITAMSAT 1 25 Jun 13:46:51 13:50:06 17° 61° (ENE) 13:53:21 435.822/435.867
50 SAT 25 Jun 13:46:58 13:49:29 17° 293° (WNW) 13:51:57 437.505
AIST 2 25 Jun 13:49:41 13:52:13 15° 43° (NE) 13:54:44 435.215
DX 1 25 Jun 13:51:19 13:55:04 30° 291° (WNW) 13:58:50 434.975-435.025
Cosmos 2491 25 Jun 13:57:35 14:05:19 37° 274° (W) 14:13:02 435.465 / 435.565
AO-7 25 Jun 14:01:10 14:06:59 22° 52° (NE) 14:12:49 29.400- 29.500
JAS-2 25 Jun 14:03:07 14:09:58 33° 265° (W) 14:16:26 435.910
PCSat 25 Jun 14:04:29 14:08:01 18° 255° (WSW) 14:11:32 145.827
PHONESAT 2.4 25 Jun 14:04:41 14:06:49 17° 209° (SSW) 14:08:57 2401.200-2431.200
SWISSCUBE 25 Jun 14:04:58 14:06:30 11° 90° (E) 14:08:01 437.505
VELOX 1 25 Jun 14:15:08 14:17:33 15° 297° (WNW) 14:19:58 145.980
CUBEBUG 1 25 Jun 14:17:22 14:19:09 12° 298° (WNW) 14:20:56 437.445
O/OREOS (USA 219) 25 Jun 14:27:24 14:31:25 33° 255° (WSW) 14:35:27 437.305
ITUPSAT 1 25 Jun 14:27:45 14:31:04 18° 93° (E) 14:34:20 437.325
ISS 25 Jun 14:28:55 14:30:40 13° 9° (N) 14:32:23 145.825
BEESAT 25 Jun 14:29:05 14:32:30 19° 93° (E) 14:35:53 436.000
Gurwin Techsat 1B 25 Jun 14:57:31 15:02:32 42° 261° (W) 15:07:35 435.225
Cosmos 2504 25 Jun 15:12:14 15:20:14 85° 277° (W) 15:28:53 435.465 / 435.565
Oscar 19 25 Jun 15:12:40 15:15:07 13° 270° (W) 15:17:36 437.125/150
TISAT 1 25 Jun 15:21:19 15:24:27 21° 293° (WNW) 15:27:36 437.305
ITAMSAT 1 25 Jun 15:23:51 15:29:01 65° 258° (WSW) 15:34:14 435.822/435.867
AIST 2 25 Jun 15:26:59 15:31:06 65° 242° (WSW) 15:35:13 435.215
SWISSCUBE 25 Jun 15:40:00 15:44:48 73° 286° (WNW) 15:49:34 437.505
MOZHAYETS 4 25 Jun 15:41:48 15:43:13 11° 89° (E) 15:44:38
YUBILEINY 25 Jun 15:42:53 15:49:03 21° 296° (WNW) 15:55:17 435.215
RS-15 25 Jun 15:47:15 15:57:08 30° 332° (NNW) 16:07:28 29.354- 29.394
AO-7 25 Jun 15:50:20 15:58:40 89° 71° (ENE) 16:07:05 29.400- 29.500
ITUPSAT 1 25 Jun 16:04:30 16:09:07 47° 289° (WNW) 16:13:43 437.325
ISS 25 Jun 16:04:47 16:07:50 35° 28° (NNE) 16:10:52 145.825
BEESAT 25 Jun 16:05:55 16:10:28 44° 289° (WNW) 16:15:00 436.000
KKS-1 25 Jun 16:15:28 16:19:18 28° 96° (E) 16:23:08 437.445
SO-50 25 Jun 16:20:29 16:24:39 29° 113° (ESE) 16:28:51 436.795
HORYU 2 25 Jun 16:38:24 16:42:34 43° 71° (ENE) 16:46:46 437.375
NOAA 15 25 Jun 16:42:22 16:44:27 12° 58° (ENE) 16:46:30 137.62
STARS 25 Jun 16:57:06 17:01:15 39° 99° (E) 17:05:22 437.465
AIST 1 25 Jun 16:58:04 17:00:59 18° 87° (E) 17:03:55
Cubesat XI-IV 25 Jun 17:05:50 17:08:41 15° 60° (ENE) 17:11:33 437.490
Cosmos 2504 25 Jun 17:10:00 17:15:05 17° 300° (WNW) 17:20:23 435.465 / 435.565
BRITE-PL 25 Jun 17:11:40 17:15:12 19° 66° (ENE) 17:18:34 437.365/2234.400
MOZHAYETS 4 25 Jun 17:16:13 17:20:51 70° 285° (WNW) 17:25:27
CUTE-I 25 Jun 17:39:18 17:43:49 29° 66° (ENE) 17:48:23 437.470
ISS 25 Jun 17:41:22 17:44:12 27° 225° (SW) 17:47:01 145.825
GONETS M04 25 Jun 17:46:27 17:52:24 21° 79° (E) 17:58:20
AO-7 25 Jun 17:47:10 17:52:25 18° 269° (W) 17:57:43 29.400- 29.500
KKS-1 25 Jun 17:52:04 17:55:47 27° 292° (WNW) 17:59:29 437.445
SO-50 25 Jun 18:00:29 18:05:01 37° 310° (NW) 18:09:34 436.795
GOMX 1 25 Jun 18:02:50 18:06:40 25° 69° (ENE) 18:10:19 467.674
LilacSat-2 25 Jun 18:04:41 18:08:08 36° 72° (ENE) 18:11:38 437.200
RS-15 25 Jun 18:06:21 18:15:15 22° 8° (N) 18:24:17 29.354- 29.394
NOAA 18 25 Jun 18:09:01 18:14:22 61° 71° (ENE) 18:19:47 137.9125
Cosmos 2499 25 Jun 18:09:31 18:14:46 19° 77° (ENE) 18:20:11 435.465 / 435.565
CUSAT 1 25 Jun 18:11:54 18:12:40 10° 60° (ENE) 18:13:24 437.405
HORYU 2 25 Jun 18:16:25 18:19:19 17° 267° (W) 18:22:14 437.375
NOAA 15 25 Jun 18:18:07 18:23:25 89° 75° (ENE) 18:28:45 137.62
STARS 25 Jun 18:34:12 18:37:18 19° 295° (WNW) 18:40:25 437.465
AIST 1 25 Jun 18:34:17 18:38:17 35° 283° (WNW) 18:42:17
CUBESAT XI-V 25 Jun 18:34:18 18:38:58 89° 271° (W) 18:43:34 437.345
Cubesat XI-IV 25 Jun 18:42:44 18:48:04 78° 257° (WSW) 18:53:27 437.490
BRITE-PL 25 Jun 18:48:19 18:53:23 50° 260° (W) 18:58:06 437.365/2234.400
HO-68 25 Jun 18:58:06 19:03:51 27° 60° (ENE) 19:09:38 435.675
CINEMA 3 25 Jun 19:05:33 19:07:41 14° 64° (ENE) 19:09:48 145.822/145.860
CUTE-I 25 Jun 19:18:51 19:23:43 36° 263° (W) 19:28:40 437.470
DOVE 4 25 Jun 19:19:45 19:24:10 74° 77° (ENE) 19:28:24 437.250
CANX-2 25 Jun 19:19:53 19:23:05 21° 67° (ENE) 19:26:19 2200.000
COMPASS 1 25 Jun 19:36:08 19:38:20 14° 64° (ENE) 19:40:34 437.405
GONETS M04 25 Jun 19:39:26 19:48:10 79° 278° (W) 19:56:54
CUTE 1.7 + AOD 2 25 Jun 19:39:58 19:43:40 30° 70° (ENE) 19:47:25 437.475
LilacSat-2 25 Jun 19:40:27 19:42:35 15° 268° (W) 19:44:44 437.200
GOMX 1 25 Jun 19:40:28 19:44:39 31° 263° (W) 19:48:39 467.674
DANDE 25 Jun 19:41:57 19:47:17 50° 74° (ENE) 19:51:14 436.750
SEEDS 25 Jun 19:50:19 19:53:55 28° 69° (ENE) 19:57:33 437.485
CUSAT 1 25 Jun 19:51:38 19:55:22 38° 268° (W) 19:58:19 437.405
NOAA 18 25 Jun 19:51:55 19:55:26 17° 268° (W) 19:58:58 137.9125
M-CUBED/EXP-1 PRIME 25 Jun 19:52:04 19:53:41 13° 61° (ENE) 19:55:17 437.505
Cosmos 2499 25 Jun 19:58:23 20:06:34 87° 277° (W) 20:15:23 435.465 / 435.565
NOAA 15 25 Jun 20:02:58 20:03:52 10° 272° (W) 20:04:46 137.62
STRAND 1 25 Jun 20:09:57 20:15:03 58° 101° (E) 20:20:06 437.568
UWE-3 25 Jun 20:19:18 20:22:12 19° 66° (ENE) 20:25:10 435.000/436.395/437.385
RS-15 25 Jun 20:20:46 20:32:20 43° 41° (NE) 20:43:51 29.354- 29.394
Oscar 11 25 Jun 20:22:56 20:25:30 16° 64° (ENE) 20:28:05 145.826/435.025
FUNcube-1 25 Jun 20:26:16 20:28:27 14° 64° (ENE) 20:30:38 145.935
AAUSAT CUBESAT 2 25 Jun 20:38:36 20:42:40 54° 74° (ENE) 20:46:47 437.432
CINEMA 3 25 Jun 20:40:23 20:44:26 48° 261° (W) 20:48:27 145.822/145.860
HO-68 25 Jun 20:44:02 20:51:04 61° 258° (WSW) 20:58:11 435.675
AUBIESAT-1 25 Jun 20:48:14 20:51:29 56° 70° (ENE) 20:54:44 437.475
CANX-2 25 Jun 20:54:51 20:58:44 33° 264° (W) 21:02:38 2200.000
CUBEBUG 2 25 Jun 20:59:43 21:03:51 78° 76° (ENE) 21:08:05 437.445
COMPASS 1 25 Jun 21:09:21 21:13:27 51° 261° (W) 21:17:35 437.405
CUTE 1.7 + AOD 2 25 Jun 21:16:07 21:19:30 23° 266° (W) 21:22:57 437.475
DELFI C3 25 Jun 21:18:52 21:22:14 26° 70° (ENE) 21:25:39 145.870
M-CUBED/EXP-1 PRIME 25 Jun 21:25:02 21:28:01 31° 256° (WSW) 21:30:59 437.505
SEEDS 25 Jun 21:26:07 21:29:35 24° 265° (W) 21:33:04 437.485
DANDE 25 Jun 21:26:42 21:29:05 13° 281° (WNW) 21:31:12 436.750
PRISM 25 Jun 21:30:29 21:34:32 62° 101° (ESE) 21:38:34 437.425
ZACube-1 25 Jun 21:40:35 21:44:45 82° 259° (WSW) 21:49:02 437.345
GONETS M04 25 Jun 21:41:41 21:46:31 16° 300° (WNW) 21:51:25
HUMSAT D 25 Jun 21:47:23 21:50:51 26° 69° (ENE) 21:54:22 437.325/437.525
STRAND 1 25 Jun 21:50:19 21:53:44 18° 298° (WNW) 21:57:10 437.568
AO-85 25 Jun 21:50:36 21:55:11 28° 112° (ESE) 21:59:42 145.980
UWE-3 25 Jun 21:54:34 21:58:24 36° 263° (W) 22:02:19 435.000/436.395/437.385
Cosmos 2499 25 Jun 21:55:41 22:01:07 18° 299° (WNW) 22:06:46 435.465 / 435.565
Oscar 11 25 Jun 21:57:02 22:01:13 48° 261° (W) 22:05:27 145.826/435.025
FUNcube-1 25 Jun 22:00:11 22:04:13 51° 260° (W) 22:08:23 145.935
AAUSAT CUBESAT 2 25 Jun 22:16:47 22:18:29 12° 270° (W) 22:20:11 437.432
ESTCUBE 1 25 Jun 22:22:52 22:25:07 14° 63° (ENE) 22:27:21 437.505/2401.250
RS-15 25 Jun 22:33:28 22:45:39 68° 245° (WSW) 22:57:41 29.354- 29.394
AISAT 25 Jun 22:40:36 22:42:44 13° 63° (ENE) 22:44:52 437.250
50 SAT 25 Jun 22:51:28 22:53:31 14° 66° (ENE) 22:55:35 437.505
TIGRISAT 25 Jun 22:51:40 22:55:47 31° 97° (E) 22:59:57 435.000
DELFI C3 25 Jun 22:53:48 22:57:03 23° 265° (W) 23:00:18 145.870
UNISAT 6 25 Jun 22:55:33 22:59:50 37° 97° (E) 23:04:10 437.425
UKube-1 25 Jun 22:58:49 23:00:37 12° 62° (ENE) 23:02:26 .
PRISM 25 Jun 23:07:59 23:09:19 11° 298° (WNW) 23:10:37 437.425
DX 1 25 Jun 23:10:56 23:14:11 21° 66° (ENE) 23:17:26 434.975-435.025
HUMSAT D 25 Jun 23:22:59 23:26:24 25° 265° (W) 23:29:53 437.325/437.525
AO-85 25 Jun 23:30:22 23:35:32 44° 308° (NW) 23:40:33 145.980
VELOX 1 25 Jun 23:34:03 23:38:15 46° 72° (ENE) 23:42:28 145.980
CUBEBUG 1 25 Jun 23:34:31 23:38:44 49° 73° (ENE) 23:42:56 437.445
ANTELSAT 25 Jun 23:35:15 23:39:54 85° 285° (WNW) 23:44:36 437.575/2403.000
NANOSAT C BR1 25 Jun 23:50:29 23:53:46 21° 94° (E) 23:57:03 145.865
QB50P1 25 Jun 23:51:29 23:54:54 23° 95° (E) 23:58:19 145.935-145.965
YUBILEINY 25 Jun 23:53:12 00:01:26 41° 73° (ENE) 00:09:37 435.215
POPSAT HIP 1 25 Jun 23:54:18 23:57:49 25° 95° (E) 00:01:19 437.405
ESTCUBE 1 25 Jun 23:56:52 00:01:23 63° 259° (W) 00:05:54 437.505/2401.250
QB50P2 26 Jun 00:05:29 00:09:25 35° 98° (E) 00:13:20 145.880/145.840
POLYITAN 1 26 Jun 00:08:04 00:12:02 36° 98° (E) 00:15:59 437.675
DUCHIFAT 1 26 Jun 00:12:10 00:16:04 35° 98° (E) 00:19:57 145.980
AISAT 26 Jun 00:14:21 00:18:42 60° 259° (WSW) 00:23:04 437.250
50 SAT 26 Jun 00:23:24 00:26:52 37° 262° (W) 00:30:22 437.505
TIGRISAT 26 Jun 00:28:31 00:32:20 26° 292° (WNW) 00:36:11 435.000
UKube-1 26 Jun 00:31:52 00:36:08 63° 258° (WSW) 00:40:26 .
UNISAT 6 26 Jun 00:32:44 00:36:20 23° 293° (WNW) 00:39:57 437.425
TISAT 1 26 Jun 00:36:53 00:40:14 24° 68° (ENE) 00:43:35 437.305
SPROUT 26 Jun 00:39:33 00:43:48 80° 259° (W) 00:48:04 437.525
DX 1 26 Jun 00:46:09 00:50:08 35° 262° (W) 00:54:08 434.975-435.025
RS-15 26 Jun 00:50:04 00:55:40 14° 266° (W) 01:01:16 29.354- 29.394
SO-50 26 Jun 00:52:02 00:55:56 25° 46° (NE) 00:59:45 436.795
Cosmos 2491 26 Jun 01:00:50 01:09:17 55° 90° (E) 01:17:43 435.465 / 435.565
Cosmos 2504 26 Jun 01:05:23 01:13:32 38° 72° (ENE) 01:21:25 435.465 / 435.565
SWISSCUBE 26 Jun 01:10:55 01:13:27 14° 62° (ENE) 01:15:59 437.505
VELOX 1 26 Jun 01:12:14 01:14:56 16° 267° (W) 01:17:40 145.980
CUBEBUG 1 26 Jun 01:12:54 01:15:16 14° 268° (W) 01:17:40 437.445
JAS-2 26 Jun 01:13:32 01:18:48 37° 96° (E) 01:23:39 435.910
BUGSAT 1 26 Jun 01:21:10 01:25:15 82° 286° (WNW) 01:29:22 437.445
NANOSAT C BR1 26 Jun 01:25:47 01:29:32 31° 290° (WNW) 01:33:16 145.865
QB50P1 26 Jun 01:27:00 01:30:39 29° 291° (WNW) 01:34:20 145.935-145.965
POPSAT HIP 1 26 Jun 01:29:56 01:33:33 27° 291° (WNW) 01:37:10 437.405
ITUPSAT 1 26 Jun 01:34:16 01:37:52 22° 65° (ENE) 01:41:29 437.325
BEESAT 26 Jun 01:35:15 01:38:54 22° 65° (ENE) 01:42:35 436.000
QB50P2 26 Jun 01:41:52 01:44:58 20° 293° (WNW) 01:48:04 145.880/145.840
Oscar 19 26 Jun 01:42:37 01:46:48 25° 95° (E) 01:50:57 437.125/150
POLYITAN 1 26 Jun 01:44:31 01:47:35 20° 294° (WNW) 01:50:39 437.675
DUCHIFAT 1 26 Jun 01:48:28 01:51:31 20° 293° (WNW) 01:54:35 145.980
YUBILEINY 26 Jun 01:50:04 01:58:13 44° 273° (W) 02:06:23 435.215
TISAT 1 26 Jun 02:12:12 02:15:46 27° 264° (W) 02:19:21 437.305
SO-50 26 Jun 02:32:12 02:36:33 40° 244° (WSW) 02:40:46 436.795
MOZHAYETS 4 26 Jun 02:43:57 02:45:29 12° 61° (ENE) 02:47:01
SWISSCUBE 26 Jun 02:45:56 02:50:40 66° 258° (WSW) 02:55:29 437.505
BEESAT 3 26 Jun 02:57:59 03:01:08 23° 113° (ESE) 03:04:18 437.485
Cosmos 2504 26 Jun 02:58:39 03:07:04 49° 272° (W) 03:15:13 435.465 / 435.565
Cosmos 2491 26 Jun 02:58:49 03:06:28 33° 290° (WNW) 03:14:08 435.465 / 435.565
JAS-2 26 Jun 02:58:53 03:03:44 28° 296° (WNW) 03:08:13 435.910
O/OREOS (USA 219) 26 Jun 03:00:23 03:04:11 27° 103° (ESE) 03:07:58 437.305
PCSat 26 Jun 03:00:51 03:06:10 61° 115° (ESE) 03:11:32 145.827
ITUPSAT 1 26 Jun 03:10:53 03:15:24 42° 261° (W) 03:19:59 437.325
BEESAT 26 Jun 03:11:58 03:16:26 39° 262° (W) 03:20:56 436.000
KKS-1 26 Jun 03:13:24 03:17:02 26° 68° (ENE) 03:20:41 437.445
Gurwin Techsat 1B 26 Jun 03:13:34 03:18:56 79° 103° (ESE) 03:24:15 435.225
Oscar 19 26 Jun 03:21:29 03:26:13 38° 291° (WNW) 03:30:55 437.125/150
BEESAT 2 26 Jun 03:29:28 03:32:53 28° 114° (ESE) 03:36:19 435.950
ITAMSAT 1 26 Jun 03:37:01 03:42:03 46° 99° (E) 03:47:03 435.822/435.867
AO-7 26 Jun 03:52:56 04:00:07 31° 96° (E) 04:07:13 29.400- 29.500
STARS 26 Jun 03:53:27 03:57:22 34° 70° (ENE) 04:01:19 437.465
